Regional Weather Roundup
Issued by NWS Mobile, AL

Home | Current Version | Previous Version | Text Only | Print | Product List | Glossary On
Versions: 1 2 3 4 5 6 7 8 9 10 11 12 13 14 15 16 17 18 19 20 21 22 23 24 25 26 27 28 29 30 31 32 33 34 35 36 37 38 39 40 41 42 43 44 45 46 47 48 49 50
000
ASUS44 KMOB 062016
RWRMOB
REGIONAL WEATHER ROUNDUP
NATIONAL WEATHER SERVICE MOBILE AL
300 PM CDT WED MAY 06 2015

ALZ061>064-062100-
COASTAL ALABAMA


CITY           SKY/WX    TMP DP  RH WIND       PRES   REMARKS
MOBILE REG APT PTSUNNY   83  60  45 SE9       30.07F
BROOKLEY FIELD PTSUNNY   80  68  66 S10G17    30.08F
GULF SHORES    CLEAR     78  66  66 SE8       30.08F

$$

ALZ051>060-062100-
INTERIOR SOUTHWEST AND SOUTH CENTRAL ALABAMA


CITY           SKY/WX    TMP DP  RH WIND       PRES   REMARKS
ANDALUSIA/OPP  PTSUNNY   86  56  35 E7        30.08F
EVERGREEN      LGT RAIN  84  57  39 SE6       30.08F
FLORALA        PTCLDY    84  58  40 VRB7      30.09F
GREENVILLE     FAIR      83  55  38 VRB5      30.09F

$$

FLZ001>006-062100-
WESTERN FLORIDA PANHANDLE


CITY           SKY/WX    TMP DP  RH WIND       PRES   REMARKS
CRESTVIEW      PTSUNNY   85  58  39 E8        30.08F
DESTIN         SUNNY     81  62  52 S8        30.07F
DUKE FIELD     MOSUNNY   83  56  39 E5        30.06F
MARY ESTHER    SUNNY     80  56  45 S9        30.06F
MILTON         PTCLDY    85  57  38 S12       30.07F
PENSACOLA      SUNNY     82  56  40 S12       30.07F
NAS PENSACOLA  MOSUNNY   79  64  60 S10       30.08F
VALPARAISO     MOSUNNY   81  61  50 S9        30.06F

$$

...MARINE OBSERVATIONS...

STATION/POSITION TIME  SKY/WX   TEMP    WIND        PRES    VSBY
                                AIR SEA DIR/SP/G
                 (UTC)          (F)     (DEG/KT/KT) (MB)    (MI)
PASCAGOULA       1900            75     130/ 13/ 17 1018.5F
PETIT BOIS ISL   1900            76     120/ 14/ 16 1019.3F
E DAUPHIN ISLAND 2000            74     130/ 14/ 15 1018.1F
MIDDLE BAY LIGHT 1900            75     160/ 16     1019.0R
USCG MOBILE BAY  1900                   170/  7/ 10   N/A
STATE DOCKS      1900            79 71              1018.5F
MEAHER PARK      2000            76     200/ 10     1017.6F
FORT MORGAN      1900            74     140/ 15/ 17 1018.7F
12 S ORANGE BCH  1950            73 75  120/  8/  8 1018.2F
WVE H/P(F/S)=  4/ 6

PENSACOLA BAY    1900            82 78  150/  5/  7 1019.3F
64 S DAUPHIN ISL 1950            75 76  120/ 16/ 17 1018.3F
WVE H/P(F/S)=  5/ 6

67 S FORT MORGAN 1930            74                 1018.0F
115 SE PENSACOLA 1950            74 76   90/ 10/ 10 1018.5F
WVE H/P(F/S)=  3/ 6

MID GULF/42001   1950            79 80  130/ 12/ 12 1015.8F
WVE H/P(F/S)=  4/ 7

EAST GULF/42003  1950            77 81   80/  8/ 10 1016.7F
WVE H/P(F/S)=  3/ 6


$$

...NEARBY LOCATIONS

CITY           SKY/WX    TMP DP  RH WIND       PRES   REMARKS
GULFPORT       CLOUDY    79  67  66 SE17      30.07S
BILOXI         SUNNY     80  69  68 SE15      30.07S
PASCAGOULA     SUNNY     82  63  52 SE14      30.07F
HATTIESBURG    MOSUNNY   86  60  41 E9        30.06F
LAUREL         MOSUNNY   84  57  39 CALM      30.07F
MERIDIAN       MOSUNNY   83  56  39 SE6       30.07F
MERIDIAN NAS   PTSUNNY   83  57  41 E8        30.08F
MONTGOMERY     PTSUNNY   84  55  36 E9        30.10S
MAXWELL AFB    SUNNY     82  54  36 E10       30.09F
TROY           SUNNY     84  57  39 N9        30.10F
FORT RUCKER    MOSUNNY   85  56  37 VRB7      30.07F
DALEVILLE      MOSUNNY   82  57  42 E9        30.08F
DOTHAN         PTSUNNY   81  58  45 NE9       30.12F

$$

...OTHER SURROUNDING LOCATIONS...

CITY           SKY/WX    TMP DP  RH WIND       PRES   REMARKS
BIRMINGHAM     MOSUNNY   81  53  37 E10       30.14F
TUSCALOOSA     MOSUNNY   81  57  43 SE9       30.10F
COLUMBUS GA    MOSUNNY   81  51  35 E9        30.11F
PANAMA CITY    NOT AVBL
TALLAHASSEE    PTSUNNY   86  59  39 NE9       30.06F
BATON ROUGE    PTSUNNY   84  64  50 E8        30.03F
NEW ORLEANS    PTSUNNY   81  67  62 E17G23    30.04F
SLIDELL        MOSUNNY   81  68  64 SE9G18    30.05F
JACKSON        MOSUNNY   83  58  42 SE10      30.05F
MCCOMB         MOSUNNY   82  59  45 S8        30.05F

$$

...SURROUNDING MARINE OBSERVATIONS...

STATION/POSITION TIME  SKY/WX   TEMP    WIND        PRES    VSBY
                                AIR SEA DIR/SP/G
                 (UTC)          (F)     (DEG/KT/KT) (MB)    (MI)
WAVELAND         1900            75 76  130/ 15/ 17 1018.5F
PASCAGOULA RGN A 1900            79     120/ 12/ 16 1018.3F
PASCAGOULA PORT  1900               78                N/A
GRAND ISLE       1900                   140/  5/  8   N/A
SOUTHWEST PASS   2000            77     120/  6/  7 1017.5F
PILOT STATION E  1900            83 67  140/  4/  6 1018.0F
SHELL BEACH      1900            77 77  110/ 17/ 21 1017.3F
PANAMA CITY      1900            76 76  230/ 12/ 13 1017.8F
APALACHICOLA     1900            75 73  140/  8/ 12 1018.2F
TYNDALL TOWER C  2000            72     150/  6/  7 1018.1F
S APLCHCLA/42036 1950            74 76   50/  6/  6 1018.3F
WVE H/P(F/S)=  2/ 5


$$



USA.gov is the U.S. government's official web portal to all federal, state and local government web resources and services.